FENGYUN 1C DEB, 40688

Orbit data source: Space-Track

FENGYUN 1C DEB, 40688 is space debris in SSO originally from a launch on Mon, 10 May 1999 UTC launched from the Taiyaun Space Center, China (TSC). Fengyun 1C debris stems from the Chinese weather satellite Fengyun-1C, which was intentionally destroyed by a Chinese anti-satellite missile in 2007. This event dramatically increased the amount of space debris, with thousands of trackable fragments posing hazards to satellites and human spaceflight. The Fengyun 1C debris cloud has become a focal point in discussions about space sustainability and the need for international regulations to prevent the creation of new debris.

Loading next visibility...
Identifier
40688, 1999-025EWU
Orbit
SSO
Country
Flag of CNCN / PRC
Related business
Manufacturer
Unknown
Mission
Spacecraft
Bus & Motor
Unknown
Mass
Unknown
Launch date (UTC)
Icon of a cake. It is the launch day of the satellite!1999-05-10 (27 years ago)
Launch vehicle
Unknown
Launch site
Taiyaun Space Center, China (TSC)
Object type
Payload
Rocket body
Debris
Shape & HBR
Unknown shape, 0.1 m
Radar Cross Section
Small (<0.1 m²)

Expand to show TLE details & history
Last TLE update: 5 days ago

TLE from 5 days ago
0 FENGYUN 1C DEB
1 40688U 99025EWU 26125.18123422  .00000306  00000-0  29015-3 0  9999
2 40688  98.9881 273.3760 0141530   5.6658 354.6060 13.83983812319017
Epoch: 2026-05-05T04:20Z
TLE epoch observation values (Epoch: 2026-05-05T04:20:58.636Z)
Latitude
0.00003°
Longitude
-14.92809°
Altitude
849.388 km
Speed
7.48 km/s
True Right ascension
18h 13m 30s
True Declination
0° 00' 00"
Sunlit
Object was in full shadow at epoch
Visualization orbit readout
Latitude
Unknown
Longitude
Unknown
Altitude
Unknown
Speed
Unknown
Apparent Right ascension
Unknown
Apparent Declination
Unknown
Sunlit
N/A
Visualization observer readout
Local Sidereal Time
21:26:30
Azimuth
Unknown
Elevation
Unknown
Doppler factor
Unknown
Orbital elements
Apogee altitude
1,050.683 km
Perigee altitude
843.337 km
Semi-major axis
7,325.147 km
Eccentricity
0.01415
Inclination
98.9881°
RAAN
273.376°
Arg. of periapsis
5.6658°
True anomaly
354.45081°
Mean anomaly
354.606°
Eccentric anomaly
354.52868°
Mean motion
3.46193 °/min
Orbital period
103.99 mins
BSTAR
0.00029015
Loading maneuver chart data...
Computing Atmospheric mass density...

Documentation

Showing up to 5 results
|